CALSPHERE 1 1 00900U 64063C 10244.26552737 .00000201 00000-0 21513-3 0 1750 2 00900 90.1546 334.3108 0027317 357.6257 2.4789 13.70644295279888 CALSPHERE 2 1 00902U 64063E 10243.80111753 .00000075 00000-0 10000-3 0 4021 2 00902 90.1581 337.0848 0020042 51.8310 308.4637 13.52479272 76923 LCS 1 1 01361U 65034C 10243.92377067 .00000009 00000-0 10000-3 0 2334 2 01361 32.1387 192.6558 0012871 129.4819 230.6818 9.89279480639008 TEMPSAT 1 1 01512U 65065E 10244.66444602 .00000059 00000-0 10000-3 0 4324 2 01512 89.7973 291.9150 0067812 241.2734 118.1569 13.33268346191458 CALSPHERE 4(A) 1 01520U 65065H 10243.66446958 .00000060 00000-0 10000-3 0 6018 2 01520 90.1700 91.0896 0070330 164.7471 195.5810 13.35348514193035 OPS 5712 (P/L 160) 1 02826U 67053A 10244.40800417 .00000426 00000-0 15815-3 0 1058 2 02826 69.9318 233.4225 0009959 268.0076 91.9931 14.38681261230746 OPS 5712 (P/L 153) 1 02874U 67053H 10244.46440867 -.00000020 00000-0 24574-4 0 5100 2 02874 69.9705 227.5152 0005906 135.0878 225.0705 13.95949125202121 SURCAL 150B 1 02909U 67053J 10243.98577926 .00000547 00000-0 16710-3 0 2890 2 02909 69.9539 36.5351 0003051 29.3551 330.7757 14.46990081236724 RIGIDSPHERE 2 (LCS 4) 1 05398U 71067E 10244.42877372 .00000224 00000-0 75909-4 0 9449 2 05398 87.6268 128.6024 0065578 164.5229 195.8022 14.31284595 47670 RADCAT 1 06212U 72076A 10244.30941773 .00002718 00000-0 92605-4 0 937 2 06212 98.5521 325.0491 0001875 275.2427 84.8550 15.31506835190329